Ono, PA

8:01 PM EST on February 07, 2016 (GMT -0500)
Muir Army Air Field

Weather History for KMUI - December, 2013

Change the Weather History Date:

Friday, December 6, 2013

  Actual Average Record
Temperature  
Mean Temperature 45 °F -  
Max Temperature 55 °F 43 °F 66 °F (2001)
Min Temperature 35 °F 31 °F 13 °F (2007)
Degree Days  
Heating Degree Days 20    
Moisture  
Dew Point 47 °F    
Average Humidity 100    
Maximum Humidity 100    
Minimum Humidity 87    
Precipitation  
Precipitation 0.88 in - - ()
Sea Level Pressure  
Sea Level Pressure 30.00 in    
Wind  
Wind Speed 4 mph (North)    
Max Wind Speed 23 mph    
Max Gust Speed 34 mph    
Visibility 6 miles    
Events Fog , Rain    
Averages and records for this station are not official NWS values.
T = Trace of Precipitation, MM = Missing Value Source: NWS Daily Summary

Daily Weather History Graph

Daily Weather History Graph

Search for Another Location

Airport or City:

Trip Planner

Search our weather history database for the weather conditions in past years. The results will help you decide how hot, cold, wet, or windy it might be!

Date:

Astronomy

Dec. 06, 2013 Rise Set
Actual Time 7:15 AM EST 4:39 PM EST
Civil Twilight 6:44 AM EST 5:10 PM EST
Nautical Twilight 6:10 AM EST 5:44 PM EST
Astronomical Twilight 5:37 AM EST 6:17 PM EST
Moon 10:18 AM EST (12/6) 9:09 PM EST (12/6)
Length of Visible Light 10h 25m
Length of Day
9h 24m
Waxing Crescent, 19% of the Moon is Illuminated
Dec 6
Waxing Crescent
Dec 9
First Quarter
Dec 17
Full
Dec 25
Last Quarter
Jan 1
New

Hourly Weather History & Observations

Time (EST) Temp. Windchill Dew Point Humidity Pressure Visibility Wind Dir Wind Speed Gust Speed Precip Events Conditions
12:17 AM 53.6 °F - 53.6 °F 100% 29.91 in 0.2 mi NNE 2.3 mph - N/A Fog , Rain Light Rain
12:49 AM 53.6 °F - 53.6 °F 100% 29.91 in 0.5 mi Calm Calm - N/A Fog , Rain Light Rain
12:55 AM 53.6 °F - 53.6 °F 100% 29.90 in 0.2 mi East 2.3 mph - N/A Fog , Rain Light Rain
12:58 AM 53.6 °F - 53.6 °F 100% 29.91 in 0.2 mi East 2.3 mph - 0.02 in Fog , Rain Light Rain
1:32 AM 53.6 °F - 53.6 °F 100% 29.90 in 0.5 mi Calm Calm - N/A Fog Light Drizzle
1:40 AM 53.6 °F - 53.6 °F 100% 29.90 in 0.2 mi North 1.2 mph - N/A Fog , Rain Light Rain
1:44 AM 53.6 °F - 53.6 °F 100% 29.89 in 0.5 mi NNE 1.2 mph - N/A Fog , Rain Light Rain
1:48 AM 53.6 °F - 53.6 °F 100% 29.89 in 0.2 mi Calm Calm - N/A Fog , Rain Light Rain
1:58 AM 53.6 °F - 53.6 °F 100% 29.90 in 0.5 mi NW 1.2 mph - 0.01 in Fog Light Drizzle
2:00 AM 53.6 °F - 53.6 °F 100% 29.89 in 0.5 mi North 2.3 mph - N/A Fog Fog
2:02 AM 53.6 °F - 53.6 °F 100% 29.89 in 0.8 mi Calm Calm - N/A   Mist
2:04 AM 53.6 °F - 53.6 °F 100% 29.89 in 1.2 mi North 1.2 mph - N/A   Overcast
2:06 AM 53.6 °F - 53.6 °F 100% 29.89 in 1.2 mi Calm Calm - N/A   Overcast
2:07 AM 53.6 °F - 53.6 °F 100% 29.89 in 1.2 mi North 1.2 mph - N/A   Heavy Drizzle
2:09 AM 53.6 °F - 53.6 °F 100% 29.89 in 1.0 mi NNE 2.3 mph - N/A   Light Drizzle
2:11 AM 53.6 °F - 53.6 °F 100% 29.89 in 0.8 mi NNE 2.3 mph - N/A   Light Drizzle
2:15 AM 53.6 °F - 53.6 °F 100% 29.89 in 0.5 mi Calm Calm - N/A Fog , Rain Light Rain
2:25 AM 53.6 °F - 53.6 °F 100% 29.89 in 0.8 mi Calm Calm - N/A Rain Light Rain
2:37 AM 53.6 °F - 53.6 °F 100% 29.89 in 0.8 mi East 2.3 mph - N/A   Mist
2:39 AM 53.6 °F - 53.6 °F 100% 29.89 in 0.8 mi East 2.3 mph - N/A   Overcast
2:40 AM 53.6 °F - 53.6 °F 100% 29.89 in 0.8 mi East 2.3 mph - N/A Rain Light Rain
2:42 AM 53.6 °F - 53.6 °F 100% 29.89 in 0.5 mi East 1.2 mph - N/A Fog , Rain Light Rain
2:44 AM 53.6 °F - 53.6 °F 100% 29.89 in 0.8 mi Calm Calm - N/A Rain Light Rain
2:50 AM 53.6 °F - 53.6 °F 100% 29.89 in 0.8 mi Variable 1.2 mph - N/A   Light Drizzle
2:58 AM 53.2 °F - 53.2 °F 100% 29.90 in 0.8 mi NNW 2.3 mph - 0.03 in   Light Drizzle
3:00 AM 53.6 °F - 53.6 °F 100% 29.89 in 0.8 mi NNW 2.3 mph - N/A   Light Drizzle
3:01 AM 53.6 °F - 53.6 °F 100% 29.89 in 0.8 mi North 2.3 mph - N/A   Overcast
3:05 AM 53.6 °F - 53.6 °F 100% 29.89 in 1.0 mi North 1.2 mph - N/A   Overcast
3:07 AM 53.6 °F - 53.6 °F 100% 29.89 in 1.2 mi Calm Calm - N/A   Overcast
3:08 AM 53.6 °F - 53.6 °F 100% 29.89 in 1.5 mi Calm Calm - N/A   Drizzle
3:10 AM 53.6 °F - 53.6 °F 100% 29.90 in 1.5 mi Variable 1.2 mph - N/A Rain Heavy Rain
3:12 AM 55.4 °F - 55.4 °F 100% 29.90 in 1.8 mi WNW 2.3 mph - N/A Rain Rain
3:16 AM 55.4 °F - 55.4 °F 100% 29.90 in 1.5 mi Calm Calm - N/A Rain Heavy Rain
3:22 AM 53.6 °F - 53.6 °F 100% 29.90 in 1.8 mi WSW 3.5 mph - N/A Rain Light Rain
3:26 AM 55.4 °F - 55.4 °F 100% 29.91 in 2.0 mi WNW 4.6 mph - N/A Rain Light Rain
3:32 AM 55.4 °F - 55.4 °F 100% 29.90 in 3.0 mi NNW 19.6 mph 25.3 mph N/A Rain Light Rain
3:34 AM 55.4 °F - 55.4 °F 100% 29.90 in 4.0 mi NNW 16.1 mph 25.3 mph N/A Rain Rain
3:38 AM 55.4 °F - 55.4 °F 100% 29.90 in 8.0 mi NNW 16.1 mph 25.3 mph N/A Rain Light Rain
3:54 AM 51.8 °F - 51.8 °F 100% 29.90 in 10.0 mi North 18.4 mph 26.5 mph N/A Rain Light Rain
3:58 AM 52.5 °F - 52.5 °F 100% 29.91 in 10.0 mi NNW 15.0 mph 27.6 mph 0.09 in Rain Light Rain
4:50 AM 48.2 °F - 48.2 °F 100% 29.92 in 10.0 mi North 23.0 mph 34.5 mph N/A   Overcast
4:58 AM 47.3 °F - 47.3 °F 100% 29.94 in 10.0 mi North 20.7 mph 34.5 mph 0.02 in   Overcast
5:10 AM 46.4 °F 38.7 °F 46.4 °F 100% 29.91 in 10.0 mi North 20.7 mph 28.8 mph N/A Rain Light Rain
5:19 AM 46.4 °F 38.7 °F 46.4 °F 100% 29.92 in 10.0 mi North 20.7 mph 28.8 mph N/A   Overcast
5:38 AM 46.4 °F 39.0 °F 46.4 °F 100% 29.94 in 10.0 mi NNW 19.6 mph 26.5 mph N/A Rain Light Rain
5:58 AM 46.6 °F - 46.6 °F 100% 29.96 in 10.0 mi North 17.3 mph 28.8 mph 0.00 in Rain Light Rain
6:32 AM 46.4 °F 39.5 °F 46.4 °F 100% 29.98 in 10.0 mi NNW 17.3 mph 24.2 mph N/A Rain Light Rain
6:58 AM 45.5 °F 39.2 °F 45.5 °F 100% 30.01 in 10.0 mi North 13.8 mph 24.2 mph 0.05 in Rain Light Rain
7:52 AM 44.6 °F 38.8 °F 44.6 °F 100% 30.02 in 10.0 mi North 11.5 mph 20.7 mph N/A   Overcast
7:55 AM 44.6 °F 39.2 °F 44.6 °F 100% 30.03 in 10.0 mi North 10.4 mph 20.7 mph N/A Rain Light Rain
7:58 AM 44.1 °F 40.8 °F 44.1 °F 100% 30.05 in 10.0 mi Variable 5.8 mph 20.7 mph 0.02 in Rain Light Rain
8:58 AM 43.2 °F 38.4 °F 43.2 °F 100% 30.09 in 7.0 mi North 8.1 mph 18.4 mph 0.05 in Rain Light Rain
9:18 AM 42.8 °F 40.1 °F 42.8 °F 100% 30.04 in 10.0 mi NE 4.6 mph - N/A   Light Drizzle
9:22 AM 42.8 °F 40.1 °F 42.8 °F 100% 30.04 in 10.0 mi Variable 4.6 mph - N/A   Overcast
9:38 AM 42.8 °F 41.1 °F 42.8 °F 100% 30.06 in 10.0 mi Variable 3.5 mph - N/A   Overcast
9:40 AM 42.8 °F - 42.8 °F 100% 30.06 in 10.0 mi Variable 2.3 mph - N/A   Light Drizzle
9:52 AM 42.8 °F 40.1 °F 42.8 °F 100% 30.06 in 10.0 mi NNE 4.6 mph - N/A   Overcast
9:58 AM 43.0 °F 40.3 °F 43.0 °F 100% 30.08 in 10.0 mi Variable 4.6 mph - 0.01 in   Overcast
9:59 AM 42.8 °F 39.3 °F 42.8 °F 100% 30.06 in 10.0 mi Variable 5.8 mph - N/A   Light Drizzle
10:07 AM 42.8 °F - 42.8 °F 100% 30.07 in 10.0 mi Variable 2.3 mph - N/A   Overcast
10:09 AM 42.8 °F 40.1 °F 42.8 °F 100% 30.07 in 10.0 mi Variable 4.6 mph - N/A   Overcast
10:10 AM 42.8 °F 40.1 °F 42.8 °F 100% 30.07 in 10.0 mi Variable 4.6 mph - N/A Rain Light Rain
10:20 AM 42.8 °F 40.1 °F 42.8 °F 100% 30.08 in 10.0 mi ENE 4.6 mph - N/A   Mostly Cloudy
10:58 AM 43.9 °F 40.5 °F 43.7 °F 99% 30.12 in 10.0 mi Variable 5.8 mph - 0.00 in   Overcast
11:58 AM 44.4 °F 42.0 °F 41.5 °F 90% 30.09 in 10.0 mi Variable 4.6 mph - N/A   Overcast
12:58 PM 44.8 °F 43.3 °F 41.0 °F 87% 30.06 in 10.0 mi North 3.5 mph - 0.01 in   Scattered Clouds
1:07 PM 44.6 °F 43.1 °F 41.0 °F 87% 30.05 in 10.0 mi Variable 3.5 mph - N/A Rain Light Rain
1:58 PM 43.3 °F 41.7 °F 43.0 °F 99% 30.09 in 10.0 mi Variable 3.5 mph - 0.02 in Rain Light Rain
2:53 PM 42.8 °F 41.1 °F 42.8 °F 100% 30.03 in 10.0 mi NE 3.5 mph - N/A   Overcast
2:55 PM 42.8 °F - 42.8 °F 100% 30.04 in 10.0 mi Variable 1.2 mph - N/A   Light Drizzle
2:58 PM 42.6 °F - 42.6 °F 100% 30.06 in 10.0 mi Variable 1.2 mph - 0.03 in   Light Drizzle
3:04 PM 42.8 °F 41.1 °F 42.8 °F 100% 30.06 in 10.0 mi North 3.5 mph - N/A   Light Drizzle
3:58 PM 41.7 °F 38.8 °F 41.7 °F 100% 30.09 in 7.0 mi NNE 4.6 mph - 0.05 in Rain Light Rain
4:54 PM 41.0 °F 35.2 °F 41.0 °F 100% 30.09 in 10.0 mi North 9.2 mph - N/A Rain Light Rain
4:58 PM 40.5 °F 34.1 °F 40.5 °F 100% 30.12 in 10.0 mi North 10.4 mph - 0.03 in Rain Light Rain
5:00 PM 41.0 °F 35.8 °F 41.0 °F 100% 30.11 in 10.0 mi North 8.1 mph - N/A Rain Rain
5:14 PM 39.2 °F 32.5 °F 39.2 °F 100% 30.11 in 10.0 mi North 10.4 mph - N/A Rain Light Rain
5:18 PM 39.2 °F 34.2 °F 39.2 °F 100% 30.11 in 10.0 mi North 6.9 mph - N/A Rain Light Rain
5:58 PM 38.5 °F 36.1 °F 38.3 °F 99% 30.13 in 9.0 mi Variable 3.5 mph - 0.05 in Rain Light Rain
6:52 PM 37.4 °F - 37.4 °F 100% 30.12 in 6.0 mi NE 2.3 mph - N/A Rain Rain
6:58 PM 37.2 °F 33.6 °F 37.2 °F 100% 30.13 in 6.0 mi North 4.6 mph - 0.10 in Rain Light Rain
7:06 PM 37.4 °F 33.8 °F 37.4 °F 100% 30.15 in 7.0 mi WNW 4.6 mph - N/A Rain Rain
7:12 PM 37.4 °F 32.8 °F 37.4 °F 100% 30.17 in 7.0 mi West 5.8 mph - N/A Rain Light Rain
7:16 PM 37.4 °F 32.8 °F 37.4 °F 100% 30.16 in 6.0 mi NNW 5.8 mph - N/A Rain Rain
7:26 PM 37.4 °F 33.8 °F 37.4 °F 100% 30.16 in 5.0 mi NNW 4.6 mph - N/A Rain Heavy Rain
7:30 PM 37.4 °F 34.9 °F 37.4 °F 100% 30.16 in 4.0 mi NNE 3.5 mph - N/A Rain Heavy Rain
7:58 PM 37.4 °F - 37.4 °F 100% 30.15 in 5.0 mi North 2.3 mph - 0.16 in Rain Rain
7:59 PM 37.4 °F - 37.4 °F 100% 30.14 in 4.0 mi NNW 2.3 mph - N/A Rain Heavy Rain
8:09 PM 37.4 °F - 37.4 °F 100% 30.14 in 4.0 mi Calm Calm - N/A Rain Light Rain
8:37 PM 37.4 °F 34.9 °F 37.4 °F 100% 30.14 in 6.0 mi NE 3.5 mph - N/A Rain Rain
8:58 PM 36.3 °F - 36.3 °F 100% 30.17 in 8.0 mi NNE 2.3 mph - 0.13 in Rain Light Rain
9:00 PM 35.6 °F - 35.6 °F 100% 30.16 in 8.0 mi Calm Calm - N/A Rain Light Rain
9:30 PM 35.6 °F 31.7 °F 35.6 °F 100% 30.11 in 7.0 mi ENE 4.6 mph - N/A Rain Light Rain